Weather in Diyevo-Gorodishche

Russia / Yaroslavl Oblast     57°38′33″N   40°11′44″E
temp.,
°C
wind,
m/s
gust,
m/s
humid.,
%
clouds,
%
prec.,
mm/h
press.,
hPa
HPBL,
m
15 april, thu
thu1500:00+11wsw226747 0.0 101823
03:00+9n348593 0.0 101856
06:00+9nne5895100 0.0 1019348
09:00+9nne5887100 0.0 1020502
12:00+10ne7978100 0.0 1021631
15:00+10ne71075100 0.0 1022792
18:00+9ne71177100 0.0 1023690
21:00+6ne71480100 0.0 1024543
16 april, fri
fri1600:00+5ene6147584 0.0 1025515
03:00+4ene61382100 0.0 1025488
06:00+3ne6137899 0.0 1026423
09:00+6ene7106182 0.0 1027584
12:00+10ene784827 0.0 1027985
15:00+12ene783638 0.0 10271278
18:00+11ene6104367 0.0 1027689
21:00+6ne5135926 0.0 1029310
17 april, sat
sat1700:00+4ne5126850 0.0 1029268
03:00+2ne5117412 0.0 1030243
06:00+2ne5117718 0.0 1031255
09:00+7ene610525 0.0 1031599
12:00+11ene68395 0.0 10311257
15:00+12ene67364 0.0 10301458
18:00+11ne48450 0.0 1029420
21:00+6ne48640 0.0 1030142
18 april, sun
sun1800:00+4ne38720 0.0 1031129
03:00+3ne37770 0.0 1032112
06:00+2ne37790 0.0 1032130
09:00+8ne46573 0.0 1033443
12:00+11ne45456 0.0 10321425
15:00+13ene554197 0.0 10321674
18:00+11ene465075 0.0 1032300
21:00+8ene366520 0.0 103389
19 april, mon
mon1900:00+6e387687 0.0 1034182
03:00+4e358228 0.0 1035107
06:00+3ene34845 0.0 103695
09:00+7e34615 0.0 1037608
12:00+10ese44455 0.0 10361458
15:00+11ese334079 0.0 10361763
18:00+10ese344462 0.0 1036854
21:00+6sse36575 0.0 1037108